User: anonymous   Login
Location: St. Louis
(38.6270°N, 90.1994°W)
Time: 13:49:10
(UTC-06:00)
Language:

Oscar 11 - Orbit

View from above orbital plane
View from above orbital plane
View from above satellite
View from above satellite

Ground track
Ground track

The orbit data is extracted from the following two-line orbital elements,

1 14781U 84021B   22021.54960165  .00000425  00000-0  57849-4 0  9997
2 14781  97.6061  15.8075 0009971  85.4776 274.7578 14.83417199 18265
Epoch (UTC): 21 January 2022 13:11:25
Eccentricity: 0.0009971
inclination: 97.6061°
perigee height: 611 km
apogee height: 625 km
right ascension of ascending node: 15.8075°
argument of perigee: 85.4776°
revolutions per day: 14.83417199
mean anomaly at epoch: 274.7578°
orbit number at epoch: 1826

The dashed part of the orbit path shows where the satellite is in the earth's shadow,  

DLR